Location: B�tov
(49.3790°N, 14.8190°E)
Time: 00:12:43
(UTC+00:00)

Daily predictions for brighter satellites

Satellite Brightness Start Highest point End
(mag) Time Altitude Azimuth Time Altitude Azimuth Time Altitude Azimuth
Cosmos 2082 Rocket 4.4 02:10:56 21° ENE 02:10:56 21° ENE 02:13:40 10° E
Cosmos 2278 Rocket 3.9 02:31:43 28° ESE 02:31:43 28° ESE 02:36:24 10° NE
USA 215 4.0 02:25:55 10° ESE 02:30:29 48° E 02:30:29 48° E
Cosmos 1833 Rocket 4.4 02:52:14 24° SE 02:52:14 24° SE 02:54:25 10° SE
Cosmos 1464 Rocket 4.0 03:25:42 10° N 03:32:05 81° E 03:38:21 10° SSE
COSMO-SKYMED 1 3.7 03:31:52 10° SE 03:35:59 43° ENE 03:37:26 31° NNE
Gbstr 26 Del rocket 3.5 03:45:48 49° E 03:45:48 49° E 03:48:55 10° ESE
H-2A R/B 4.1 03:41:30 10° NNE 03:44:56 37° E 03:48:23 10° SSE
COSMOS 2406 3.6 03:52:21 45° SW 03:52:21 45° SW 03:56:46 10° S
Cosmos 2082 Rocket 2.0 03:52:50 60° NW 03:53:50 78° WSW 03:59:26 10° SSE
Cosmos 2344 3.8 03:48:37 10° SSW 03:55:59 64° SE 04:03:40 10° NE
COSMOS 2455 3.3 03:57:05 41° SW 03:57:05 41° SW 04:01:52 10° S
Cosmos 1891 Rocket 4.5 03:51:34 14° NNW 03:57:03 62° W 04:03:23 10° S
Landsat 5 4.2 03:52:42 10° SSE 03:57:07 57° ENE 04:00:18 18° N
Cosmos 1842 Rocket 4.2 03:58:55 43° SSW 03:58:55 43° SSW 04:01:58 10° S
SL-24 R/B 4.3 03:53:31 10° NNE 03:58:53 82° WNW 04:02:33 17° SSW
Cosmos 1850 Rocket 4.0 03:54:58 14° SSW 03:59:32 82° ESE 04:04:55 10° NNE
METEOR-M 4.4 04:00:27 10° N 04:04:50 45° NW 04:04:50 45° NW
Cosmos 1844 Rocket 4.5 04:07:43 16° NNW 04:07:43 16° NNW 04:09:54 10° N
MOS 1-B Rocket 3.9 04:03:58 10° S 04:10:39 72° WSW 04:16:31 10° NNW
Cosmos 2034 Rocket 3.8 04:07:22 10° NNW 04:13:34 74° W 04:19:46 10° S
Cosmos 1900 4.4 04:13:44 52° W 04:14:26 58° WSW 04:19:22 10° SSE
Cosmos 2278 Rocket 2.2 04:13:39 40° WSW 04:15:25 56° NW 04:21:02 10° NNE
USA 215 3.6 04:09:30 10° SSE 04:15:43 45° SW 04:17:51 35° W
Cosmos 1782 3.7 04:12:57 11° N 04:16:40 49° ENE 04:20:30 10° SSE
Cosmos 1943 Rocket 3.3 04:14:26 10° S 04:19:48 45° ESE 04:25:11 10° NE
CZ-2C R/B 2.6 04:15:01 10° S 04:20:35 77° WSW 04:26:04 10° NNW
BREEZE M DEB (TANK) 2.8 04:21:18 40° WSW 04:22:48 83° S 04:25:24 10° E
SKYMED 2 3.5 04:19:39 10° S 04:23:58 66° WSW 04:26:01 30° NNW
Cosmos 1816 Rocket 4.4 04:18:14 10° S 04:24:25 83° W 04:30:44 10° N
Cosmos 540 Rocket 3.8 04:25:25 39° W 04:25:56 40° WSW 04:30:42 10° S
IRAS Rocket 4.5 04:21:39 10° SSE 04:27:08 69° ENE 04:32:37 10° NNW
Cosmos 2221 4.4 04:32:04 17° SW 04:32:04 17° SW 04:33:14 10° SSW
Cosmos 1933 3.1 04:27:43 23° NNW 04:30:10 78° W 04:34:10 10° S
ADEOS 4.2 04:25:07 10° NNE 04:30:18 60° ESE 04:35:27 10° S
Cosmos 1833 Rocket 4.3 04:34:00 17° SW 04:34:00 17° SW 04:36:08 10° SSW
Cosmos 1741 Rocket 4.0 04:30:22 10° SW 04:35:29 56° WNW 04:40:39 10° NNE
CZ-4B R/B 4.0 04:31:28 10° N 04:35:50 78° WNW 04:40:16 10° SSW
SL-8 R/B 3.7 04:35:05 31° WSW 04:37:23 75° S 04:42:10 10° E
Meteor 1-31 Rocket 2.6 04:33:31 10° N 04:37:23 75° WNW 04:41:15 10° SSW
Tsikada Rocket 3.9 04:31:14 10° S 04:37:25 83° W 04:43:43 10° N
Cosmos 1634 Rocket 4.0 04:35:22 10° N 04:41:44 89° ENE 04:48:00 10° S
Iridium 2 4.4 04:38:14 10° SSE 04:41:56 54° E 04:45:39 10° NNE
Cosmos 2151 2.9 04:38:39 10° SSW 04:42:55 71° WNW 04:47:14 10° N
Cosmos 1812 3.0 04:45:38 10° N 04:49:30 67° ENE 04:53:19 10° SSE
Cosmos 841 Rocket 4.1 04:48:36 25° WNW 04:50:26 32° WSW 04:54:59 10° SSW
CZ-4C R/B 2.9 04:47:25 10° S 04:50:31 48° W 04:51:33 33° NW
Cosmos 1939 Rocket 4.2 04:52:43 10° NNE 04:56:33 42° E 05:00:18 10° S
H-2A R/B 2.2 04:52:37 10° SSE 04:56:48 73° ENE 05:01:06 10° N
SJ-12 4.4 04:53:00 10° N 04:56:48 37° WNW 05:00:37 10° SW
Envisat 3.2 04:52:49 10° N 04:57:41 47° WNW 05:02:31 10° SW
Cosmos 2098 Rocket 3.1 04:55:10 10° S 04:58:31 64° E 05:02:43 10° NNE
Genesis I 3.6 04:57:08 17° NNW 05:00:13 64° NE 05:04:16 10° SE
Cosmos 2297 Rocket 4.5 04:58:59 10° N 05:01:26 13° NNE 05:03:50 10° NE
Cosmos 1766 Rocket 4.3 04:57:19 10° S 05:01:34 56° E 05:05:51 10° NNE
Cosmos 1570 Rocket 4.3 05:01:27 14° NW 05:05:44 44° WSW 05:10:41 10° S
YAOGAN 6 3.7 05:02:53 10° NNW 05:05:56 24° WNW 05:08:57 10° WSW
DMSP B5D1-3 4.5 05:02:08 10° S 05:07:16 71° WSW 05:12:27 10° NNW
Cosmos 1076 Rocket 4.4 05:04:25 10° SW 05:08:12 28° WNW 05:12:00 10° N
DMSP B5D2-2 4.0 05:04:35 10° S 05:09:47 67° WSW 05:15:00 10° NNW
Cosmos 2369 Rocket 3.2 05:05:36 10° S 05:10:58 51° ESE 05:16:23 10° NE
COSMO-SKYMED 1 3.7 05:08:52 10° SW 05:12:19 23° W 05:14:38 15° NW
Aureole 1 Rocket 1.9 05:11:27 10° SSW 05:14:33 72° WNW 05:17:32 10° NNE
Cosmos 1867 3.8 05:10:50 15° NW 05:15:20 53° WSW 05:20:36 10° SSE
FALCON 9 DEB 4.0 05:14:26 10° SW 05:17:08 39° SSE 05:19:51 10° ENE
APEX 3.5 05:16:51 21° WNW 05:17:56 28° WSW 05:20:29 10° S
Cosmos 921 Rocket 3.0 05:13:41 10° NNW 05:18:02 69° WSW 05:22:24 10° S
H-2A R/B 3.9 05:16:05 10° NNW 05:18:50 20° WNW 05:21:35 10° WSW
NOSS 3 (A) 4.1 05:19:04 28° NNW 05:19:04 28° NNW 05:20:40 10° NNE
Cosmos 2084 Rocket 3.1 05:15:38 10° SW 05:19:28 68° NW 05:23:21 10° NE
Cosmos 1328 Rocket 3.6 05:15:20 10° N 05:19:47 90° W 05:24:11 10° S
H-2A R/B 3.8 05:15:58 10° NNE 05:20:27 33° E 05:24:53 10° SSE
NOSS 3-2 (A) 3.4 05:14:57 10° SW 05:20:37 71° NW 05:27:17 10° NE
FALCON 9 DEB 3.5 05:20:12 10° SW 05:22:59 49° SSE 05:25:46 10° ENE
NOAA 12 4.1 05:18:11 10° NNE 05:23:32 88° W 05:28:48 10° SSW
Meteor 1-10 Rocket 4.3 05:18:16 10° N 05:23:54 80° ENE 05:29:26 10° SSE
NOSS 3-2 (C) 3.5 05:18:24 10° SW 05:24:00 80° SE 05:30:34 10° NE
PSLV R/B 4.4 05:20:15 10° SSE 05:24:14 61° ENE 05:28:16 10° N
Cosmos 1151 Rocket 3.1 05:21:41 10° NNW 05:26:00 56° W 05:30:16 10° S
FALCON 9 DEB 4.5 05:23:34 10° SSW 05:26:13 33° SE 05:28:53 10° ENE
CENTAUR R/B 2.6 05:21:17 10° SW 05:27:18 79° NW 05:34:37 10° NE
Cosmos 968 Rocket 3.4 05:22:52 10° SSW 05:28:02 75° WNW 05:33:13 10° NNE
CZ-4B R/B 2.6 05:25:40 10° N 05:29:16 56° WNW 05:32:45 10° SSW
Meteor 2-6 Rocket 4.1 05:25:22 10° NNW 05:30:50 69° W 05:36:11 10° S
Gbstr 26 Del rocket 4.0 05:28:19 12° W 05:31:23 31° SW 05:35:18 10° SSE
Meteor 2-3 Rocket 4.2 05:27:10 10° SW 05:32:23 38° WNW 05:37:43 10° N
Cosmos 2227 Rocket 4.4 05:32:51 10° N 05:35:56 15° NNE 05:39:02 10° ENE
Cosmos 2082 Rocket 3.9 05:34:44 11° WNW 05:36:57 13° W 05:39:27 10° WSW
Meteor PRIRODA 4.1 05:36:39 10° N 05:40:01 37° WNW 05:43:22 10° SW
CZ-4B R/B 1.4 05:38:03 10° S 05:41:24 68° WSW 05:44:45 10° NNW
Cosmos 1408 Rocket 3.9 05:38:32 10° S 05:42:49 71° E 05:47:08 10° NNE
Cosmos 2297 3.9 05:37:52 10° SW 05:43:27 50° NW 05:49:02 10° NNE
USA 238 DEB 3.7 05:45:55 10° SW 05:52:26 70° NW 05:59:23 10° NE
USA 238 3.7 05:46:01 10° SW 05:52:31 70° NW 05:59:29 10° NE
Cosmos 1782 4.4 05:50:07 10° NW 05:52:32 16° W 05:54:58 10° WSW
Cosmos 1515 Rocket 3.5 05:48:18 10° NNW 05:52:43 75° W 05:57:04 10° S
CZ-2C R/B 3.3 05:51:27 10° N 05:55:52 39° WNW 06:00:23 10° SW
